User: anonymous   Login
Location: Erdweis
(48.5167°N, 15.3500°E)
Time: 04:51:47
(UTC+00:00)
Language:

Okean 2 Rocket - Orbit

View from above orbital plane
View from above orbital plane
View from above satellite
View from above satellite

Ground track
Ground track

The orbit data is extracted from the following two-line orbital elements,

1 20511U 90018B   21125.34636766  .00000082  00000-0  77564-5 0  9993
2 20511  82.5236  73.3445 0018431 138.3682 336.6470 14.80076207660726
Epoch (UTC): 05 May 2021 08:18:46
Eccentricity: 0.0018431
inclination: 82.5236°
perigee height: 616 km
apogee height: 642 km
right ascension of ascending node: 73.3445°
argument of perigee: 138.3682°
revolutions per day: 14.80076207
mean anomaly at epoch: 336.6470°
orbit number at epoch: 66072

The dashed part of the orbit path shows where the satellite is in the earth's shadow,  

DLR